Regional Weather Roundup
Issued by NWS

Home | Current Version | Previous Version | Text Only | Print | Product List | Glossary Off
Versions: 1 2 3 4 5 6 7 8 9 10 11 12 13 14 15 16 17 18 19 20 21 22 23 24 25 26 27 28 29 30 31 32 33 34 35 36 37 38 39 40 41 42 43 44 45 46 47 48 49 50

000
ASUS45 KBOU 272207
RWRCO

WEATHER ROUNDUP FOR COLORADO
NATIONAL WEATHER SERVICE DENVER/BOULDER CO
400 PM MDT THU APR 27 2017

NOTE: "FAIR" INDICATES FEW OR NO CLOUDS BELOW 12000 FEET WITH NO
SIGNIFICANT WEATHER AND/OR OBSTRUCTIONS TO VISIBILITY.

COZ001>005-013-030-031-272300-
...NORTHWEST COLORADO...

CITY           SKY/WX    TMP DP  RH WIND       PRES   REMARKS
CRAIG          FAIR      42  34  73 SW17      29.67F
HAYDEN         CLOUDY    32  27  80 SW13G21   29.67R WCI  22
MEEKER         PTSUNNY   40  29  64 CALM      29.69F
MOUNT WERNER   NOT AVBL
STEAMBOAT SPGS CLOUDY    38  28  66 SW16G22   29.64F
WALDEN           N/A     39  18  41 W16G22    29.63R
$$

COZ006>008-011-272300-
...WEST CENTRAL VALLEYS...

CITY           SKY/WX    TMP DP  RH WIND       PRES   REMARKS
GRAND JUNCTION CLOUDY    51  28  41 NE12      29.63R
MONTROSE       FAIR      58   0   9 W21G31    29.63S
EAGLE          PTSUNNY   43  27  52 CALM      29.66F
RIFLE          CLOUDY    51  24  34 N10G17    29.61F
DELTA          PTSUNNY   59  15  18 NW13G29   29.60F
NUCLA          PTSUNNY   55   5  13 W7G31     29.69F
$$

COZ017>023-064>068-272300-
...SOUTHWEST COLORADO...

CITY           SKY/WX    TMP DP  RH WIND       PRES   REMARKS
DURANGO        CLOUDY    47  28  47 W15G31    29.67F
CORTEZ         CLOUDY    57  27  31 W17G28    29.66F
PAGOSA SPRINGS PTSUNNY   47  24  41 SW18G28   29.66S
TELLURIDE      PTSUNNY   39  13  33 NW14G24   29.74S
WOLF CREEK PAS CLOUDY    23  19  86 SW10G17   29.77R WCI  12
$$

COZ009-010-012-014-032>034-037-058>063-272300-
...CENTRAL COLORADO...

CITY           SKY/WX    TMP DP  RH WIND       PRES   REMARKS
ASPEN          FAIR      40  25  55 VRB6      29.63F
BUENA VISTA    FAIR      44  18  34 W22G43    29.60F
COPPER MTN     CLOUDY    23  18  80 MISG      29.67R
BERTHOUD PASS  CLOUDY    14   3  62 NW30G39   29.63S WCI  -7
COTTONWOOD PAS LGT SNOW  32  21  64 W26G40    29.61F WCI  18
GUNNISON       FAIR      43  21  41 NW22G33   29.63R
KREMMLING      PTSUNNY   43  32  65 S6        29.65F
LEADVILLE      LGT SNOW  25  18  74 VRB7      29.65S WCI  17
MONARCH PASS   CLOUDY    19  18  93 MISG      29.77R
SALIDA         CLOUDY    39  31  74 NW14G36   29.70R
SUNLIGHT       LGT SNOW  23  21  93 MISG      29.71F
WILKERSON PASS CLOUDY    30  12  47 W8G20     29.65S WCI  23
$$

COZ069>075-272300-
...SAN LUIS VALLEY/SANGRE DE CRISTO MOUNTAINS...

CITY           SKY/WX    TMP DP  RH WIND       PRES   REMARKS
ALAMOSA        FAIR      50  20  30 W28G35    29.56F
LA VETA PASS   LGT SNOW  36  27  69 SW21G39   29.69F
SAGUACHE       FAIR      45  23  42 NW21G33   29.62F
$$

COZ035-036-038>040-272300-
...NORTHERN COLORADO FRONT RANGE...

CITY           SKY/WX    TMP DP  RH WIND       PRES   REMARKS
DENVER INTL AP PTSUNNY   52  36  54 N14       29.51F
DMNS CITY PARK   N/A     53  31  44 NE8G18    29.51S
AURORA         PTSUNNY   50  37  60 NE12      29.52F
FRONT RANGE AP PTSUNNY   52  39  62 N14G24    29.53S
ERIE MUNI ARPT FAIR      53  38  58 N10G17    29.52F
BOULDER MUN AP FAIR      52  34  50 N7        29.51F
CENTENNIAL     PTSUNNY   48  36  63 NE12      29.52S
BROOMFIELD     PTSUNNY   54  39  58 N10       29.53S
FORT COLLINS   FAIR      50  36  58 NE8       29.53F
LONGMONT       PTSUNNY   55  36  48 N7        29.54S
$$

COZ041-046-047-076>085-087-088-272300-
...PIKES PEAK/PALMER DIVIDE AND SOUTHERN FOOTHILLS...

CITY           SKY/WX    TMP DP  RH WIND       PRES   REMARKS
COLO. SPRINGS  PTSUNNY   51  32  48 N24G32    29.49S
A. F. ACADEMY  CLOUDY    46  27  49 N20G25    29.51R
SCHRIEVER AFB  FAIR      51  32  48 N24G33    29.47F
ELLICOTT       FAIR     N/A N/A N/A N22G30    29.46F
FALCON         DRIZZLE   44  31  60 N17G24    29.51S
FORT CARSON    PTSUNNY   52  33  47 N23G30    29.47R
LIMON          CLOUDY    44  37  76 N3        29.48F
MONUMENT HILL  FAIR      43  32  65 N17G24    29.54F
TRINIDAD       PTSUNNY   59  32  36 SW20      29.50R
$$

COZ042>045-048>051-090-091-272300-
...NORTHEAST COLORADO...

CITY           SKY/WX    TMP DP  RH WIND       PRES   REMARKS
GREELEY ARPT   FAIR      47  40  76 NE7       29.54F
AKRON          RAIN      44  40  85 CALM      29.51S FOG
BURLINGTON     NOT AVBL
WRAY           NOT AVBL
STERLING       RAIN      45  41  87 N10G18    29.51R
HOLYOKE        PTSUNNY   54  37  54 E16G23    29.52S
FORT MORGAN    LGT SNOW  40  37  87 NW22G28   29.57R
$$

COZ086-089-092>099-272300-
...SOUTHEAST COLORADO...

CITY           SKY/WX    TMP DP  RH WIND       PRES   REMARKS
PUEBLO         FAIR      66  34  30 N30G36    29.40R
LA JUNTA       FAIR      68  34  28 S10       29.38F
LAMAR          FAIR      71  30  21 MISG      29.35F
SPRINGFIELD      N/A     59  42  53 NW3       29.45R
$$



USA.gov is the U.S. government's official web portal to all federal, state and local government web resources and services.